Theta_e
329 331 332 331 331 331 331 330 331 331 333 333 332 332 333 333 334 333 331 331 331 331 331 329 329 331 329 329 329 331 331 332 332 334 331 330 331 332 330 331 327 328 329 331 330 330 330 328 329 330 331 329 328 328 330 329 329 329 328 326 325 323 323 318 306 306 312 311 307 308 311 311 309 310 308 308 309 309 312 311 308 304 304 305 302
330 332 332 331 331 331 329 329 330 331 332 332 332 333 332 333 333 331 331 329 329 329 329 331 330 331 327 327 329 326 328 329 331 332 330 329 330 333 332 328 327 326 327 326 328 331 332 331 328 329 331 330 329 328 329 329 327 326 325 324 322 322 323 318 307 306 306 307 307 310 310 311 308 311 309 308 309 310 309 310 308 306 306 307 304
331 332 329 329 331 330 329 328 328 328 330 331 331 331 332 333 332 332 330 328 330 330 330 331 330 329 327 328 326 326 327 328 331 331 329 329 327 329 330 327 327 326 326 326 324 326 329 330 329 330 331 328 327 327 329 328 327 325 323 323 323 320 319 315 309 308 306 308 310 308 308 309 309 310 311 310 310 311 310 309 308 308 309 309 308
331 331 327 328 329 330 330 329 329 329 329 330 330 331 332 332 332 332 330 328 328 332 330 330 330 331 327 326 326 324 328 326 330 329 327 328 328 328 328 329 326 326 327 324 323 324 326 328 329 331 331 328 328 326 327 329 327 328 326 323 322 319 323 314 312 310 309 308 307 307 310 309 312 311 312 311 310 309 309 311 311 311 311 311 311
330 329 327 329 332 332 331 330 329 329 329 330 330 331 331 331 332 330 330 329 327 332 327 332 328 330 331 328 324 324 325 325 327 328 329 330 328 329 327 326 328 327 328 325 326 325 326 328 329 327 327 329 327 325 325 324 326 324 322 322 317 319 322 315 313 313 311 309 310 311 310 310 311 310 311 310 310 310 310 309 311 311 311 311 312
330 330 327 327 329 329 330 330 329 329 329 330 330 331 331 331 332 329 328 327 328 328 326 329 325 325 327 327 322 323 323 324 326 327 326 328 329 328 327 328 327 326 320 325 325 326 326 327 327 328 325 326 326 326 324 324 323 322 321 319 314 317 317 318 316 313 313 312 310 313 309 310 308 311 311 312 311 310 309 309 310 312 312 311 306
329 327 325 326 325 326 329 330 330 330 330 330 331 332 330 331 330 331 329 328 326 326 327 326 329 326 323 327 322 322 322 323 325 326 327 326 328 326 327 326 326 329 323 325 326 326 326 326 326 326 324 326 327 326 326 324 323 321 320 322 319 317 316 315 314 313 313 312 311 311 311 312 312 309 312 312 313 312 310 309 309 311 312 312 307
327 327 326 326 327 328 329 332 330 329 329 330 329 330 329 329 329 330 328 326 324 324 325 324 328 327 328 325 323 322 317 314 312 314 318 325 327 327 326 326 326 324 327 327 324 324 326 328 328 327 327 327 328 327 326 325 326 323 321 323 322 315 314 314 314 313 312 312 309 309 311 310 311 313 312 311 310 311 312 311 309 309 311 313 308
326 325 326 327 325 327 331 333 331 330 331 329 328 328 329 327 330 329 327 325 328 324 325 323 323 326 322 323 322 320 315 309 304 302 309 313 319 326 327 326 325 324 324 325 323 324 326 328 328 325 324 319 311 311 310 314 323 325 325 324 321 319 317 315 316 316 315 313 314 313 311 311 310 311 309 310 308 307 311 312 311 311 311 312 311
324 325 324 325 326 326 329 331 329 328 326 325 325 323 325 328 329 326 323 323 326 323 323 323 324 321 322 321 320 316 311 307 299 296 298 304 314 321 326 324 324 324 322 323 322 325 321 324 326 322 316 314 308 301 299 302 307 312 314 318 322 321 323 319 317 316 316 314 312 313 312 311 311 312 310 311 314 314 312 312 309 311 311 311 312
324 324 324 325 325 325 325 327 326 323 324 325 324 324 324 323 324 322 323 324 324 323 323 321 322 323 321 318 314 310 305 299 294 292 293 295 309 315 320 323 322 322 323 323 322 322 318 317 317 317 315 315 310 301 299 298 297 298 298 302 307 318 320 320 317 318 316 314 315 314 312 311 313 316 314 314 313 314 310 312 312 311 310 307 305
318 318 320 322 323 323 324 324 326 325 324 323 323 323 323 322 323 321 323 323 324 324 321 320 319 318 315 312 310 306 302 295 292 293 293 293 296 310 319 322 323 322 321 321 321 321 320 318 318 321 322 320 318 315 310 300 298 298 298 298 298 297 302 317 318 316 318 315 315 314 313 313 314 315 314 313 313 313 314 312 311 310 308 307 307
312 313 315 317 318 319 318 317 317 318 320 322 323 322 323 324 323 323 323 324 322 320 317 316 315 313 310 307 304 303 300 293 292 292 292 292 291 302 319 321 322 321 322 323 321 322 321 321 321 326 322 323 321 319 317 314 299 296 299 304 305 301 298 298 302 313 315 314 314 315 316 315 315 315 316 315 316 313 313 311 311 310 310 309 308
308 310 311 311 313 313 315 315 315 317 317 316 316 318 319 319 320 322 322 322 320 318 317 314 312 310 308 306 303 300 298 293 292 292 292 291 291 295 318 324 324 323 322 323 323 323 321 321 323 322 322 320 314 314 321 315 315 314 316 316 317 314 304 298 295 295 304 315 315 312 314 317 316 318 322 322 319 314 313 312 312 311 310 310 311
305 306 307 308 310 311 312 312 313 313 313 312 311 312 313 314 314 315 317 318 318 317 317 315 312 310 307 306 303 301 297 292 291 291 291 292 292 298 320 325 322 323 322 323 322 323 323 324 321 320 316 309 302 298 311 321 320 319 318 319 318 319 318 316 314 313 311 313 314 316 316 317 317 319 321 323 321 318 317 314 315 314 314 314 314
301 303 303 305 305 307 309 310 310 310 309 309 309 309 309 310 311 312 312 313 314 315 315 314 312 311 311 309 305 301 298 291 291 291 291 291 295 314 321 323 323 322 323 324 322 323 323 323 323 318 311 304 296 293 296 307 321 319 319 319 320 320 321 319 312 310 316 317 317 316 316 312 300 308 307 309 316 320 320 318 316 315 313 311 310
299 300 301 302 303 304 305 306 306 307 307 307 306 306 307 308 309 310 309 309 309 309 309 310 311 310 309 307 304 300 297 292 291 291 291 291 297 311 317 320 322 323 323 326 325 316 314 319 323 315 306 300 292 292 294 303 320 320 319 319 320 319 319 322 304 302 302 302 300 299 296 295 297 297 297 296 303 307 312 312 313 314 312 309 310
298 299 299 301 302 303 303 304 304 305 305 305 306 306 306 307 308 308 307 306 306 307 308 307 307 308 307 306 304 301 297 294 291 291 291 291 296 306 311 315 322 322 322 323 318 308 303 305 310 305 300 295 289 290 292 304 313 314 315 316 318 318 317 314 320 320 309 307 304 301 300 300 298 296 295 296 296 300 310 309 311 313 312 311 309
298 298 298 300 301 301 302 303 303 304 304 304 305 304 305 306 307 308 308 307 307 308 308 306 305 307 308 308 306 301 297 295 291 291 291 291 295 304 311 311 308 308 312 313 314 306 301 296 296 294 294 291 289 289 290 298 304 306 306 309 310 313 307 307 308 311 312 314 317 320 316 312 314 313 312 303 299 301 309 312 313 312 310 310 311
300 300 300 300 300 301 301 302 302 303 303 303 304 305 305 306 307 307 308 309 308 307 306 305 304 305 307 308 306 302 298 296 293 291 292 292 293 303 305 301 300 302 304 305 308 308 303 299 295 291 290 290 290 289 289 291 298 301 304 304 305 307 304 303 305 306 306 308 311 314 317 318 318 318 318 316 314 310 309 311 313 312 311 310 310
300 301 301 301 300 300 301 301 301 302 303 304 304 304 305 305 305 305 306 307 308 307 307 307 306 306 306 304 302 303 300 296 294 291 292 292 292 296 299 296 297 300 302 303 304 307 305 300 296 292 291 291 291 290 290 289 291 298 302 303 304 299 296 301 303 301 305 307 308 311 315 317 318 318 318 316 314 313 311 310 311 313 312 310 309
300 300 301 301 301 301 301 302 302 302 303 303 303 303 305 306 305 305 305 305 305 306 306 306 305 305 306 303 301 301 301 299 296 292 291 292 291 293 297 297 295 300 302 302 303 304 305 302 299 293 291 291 291 291 291 291 290 297 300 296 294 293 298 299 301 304 305 305 304 304 306 309 313 315 316 315 313 313 313 313 311 311 311 313 311
299 300 300 301 302 302 302 302 302 303 303 303 303 303 304 304 304 305 304 304 304 304 306 306 305 305 305 305 301 300 300 299 295 295 291 291 291 291 290 294 291 300 298 298 300 301 302 300 299 295 291 291 291 291 291 290 291 296 294 293 292 290 291 298 301 303 302 303 303 303 303 304 304 306 307 310 313 312 310 312 312 311 307 304 304
300 299 298 300 301 301 302 303 303 302 302 303 303 302 303 303 303 305 303 304 304 305 305 306 305 306 305 304 304 301 301 300 295 294 293 290 291 291 290 288 289 295 298 301 301 301 299 298 295 291 292 292 291 291 291 291 293 292 291 290 289 289 295 298 300 302 299 299 300 301 302 302 302 303 304 307 309 310 311 311 309 309 306 303 301
299 299 299 299 299 300 301 302 302 303 303 302 301 301 301 302 302 303 304 304 305 303 303 304 304 305 306 305 304 303 302 302 299 295 291 291 291 291 290 290 290 288 298 301 300 299 293 290 291 291 291 291 291 293 295 296 294 292 290 288 291 296 300 301 301 303 301 300 301 303 303 303 304 305 309 312 309 308 308 308 303 301 302 302 300
298 299 300 300 299 300 300 300 299 298 299 299 299 299 300 301 300 300 301 301 301 301 300 302 302 304 305 304 303 304 305 303 301 300 297 296 296 293 291 289 291 292 292 294 292 291 291 291 292 292 294 295 297 297 297 298 294 292 292 293 297 299 299 300 301 301 300 300 301 301 302 304 305 307 308 309 308 305 306 303 300 300 301 299 297
299 299 299 300 300 300 299 299 298 297 297 298 298 298 299 300 298 297 297 297 298 300 301 300 300 301 302 303 304 301 298 297 296 296 297 296 297 297 299 301 296 293 298 298 295 297 297 296 296 293 293 293 292 292 292 293 294 297 298 300 300 300 300 301 303 302 300 301 299 301 302 303 305 304 304 306 305 304 305 301 300 299 299 297 296
300 300 300 300 299 302 301 294 297 297 297 296 296 296 298 299 297 295 295 295 295 297 298 298 298 300 300 299 300 299 296 294 293 292 293 292 294 295 296 297 296 296 296 293 293 295 296 294 296 299 300 300 300 300 301 301 299 298 300 301 301 300 300 301 300 303 303 303 302 303 303 304 303 303 304 304 305 304 304 303 301 300 298 298 293
297 298 299 301 299 299 300 301 301 299 298 296 295 294 293 296 297 294 294 294 294 295 297 296 296 297 298 296 296 297 295 292 291 288 288 288 288 291 292 293 292 293 292 288 290 293 295 296 297 297 299 293 293 297 297 297 295 298 300 300 299 300 300 300 299 299 300 300 300 299 298 300 300 301 301 302 303 303 304 302 301 300 299 297 294
298 297 297 297 297 298 299 299 301 300 299 297 296 295 290 290 292 296 293 289 289 290 291 293 294 296 297 295 295 294 292 291 288 287 288 288 288 287 288 288 288 289 288 286 287 289 289 291 292 294 294 293 292 292 292 292 292 292 294 294 294 298 298 298 299 299 297 296 297 295 294 292 294 298 299 299 299 299 300 297 301 300 296 296 295
298 298 297 297 296 298 299 299 301 302 302 299 298 294 295 294 290 289 290 290 289 288 288 288 288 290 294 294 290 288 287 286 287 288 288 288 288 288 288 288 288 288 287 288 288 289 289 290 291 292 293 295 292 292 292 292 292 292 293 294 295 295 292 295 297 294 294 294 293 295 294 293 292 293 294 294 295 297 298 295 296 297 296 294 292
296 297 299 299 299 298 302 301 301 302 301 300 299 296 295 294 294 290 288 289 289 288 288 288 288 289 289 291 294 294 289 288 287 288 288 289 289 288 288 288 288 288 288 287 287 289 290 291 292 292 293 293 292 291 292 293 293 293 293 293 292 293 294 294 294 297 294 294 293 293 293 292 292 291 291 291 290 293 294 291 293 292 292 294 293
297 297 297 297 299 301 297 299 301 301 300 299 300 299 297 296 293 292 291 288 288 289 289 288 288 288 288 288 288 289 288 288 287 288 289 289 288 288 288 288 288 287 287 288 288 290 292 292 294 295 294 292 294 294 295 296 295 294 294 293 292 292 295 294 292 293 291 293 291 292 291 291 291 291 291 290 289 289 289 288 290 291 290 289 289
298 297 297 297 298 299 300 300 298 299 300 301 301 300 297 299 299 295 293 292 292 291 289 289 289 289 289 288 288 288 289 289 289 289 289 289 289 288 288 289 290 288 289 289 291 291 293 295 294 295 296 295 296 294 293 294 293 293 293 294 294 294 294 294 293 291 290 291 291 290 290 290 290 290 290 290 289 289 288 288 288 288 288 288 288
298 293 289 292 298 299 302 300 299 299 298 298 297 297 299 298 298 298 296 296 294 293 294 294 290 288 291 290 289 289 290 290 289 289 289 289 289 289 290 290 289 289 291 293 297 297 296 296 296 296 296 295 294 292 292 294 293 293 292 291 292 292 291 290 289 290 290 291 290 289 289 289 290 290 289 288 288 288 287 288 288 289 288 288 288
299 299 299 298 298 299 300 299 299 299 297 297 297 296 296 296 297 298 298 297 297 296 294 295 294 290 288 291 290 290 290 290 289 289 289 289 289 289 291 291 293 294 295 296 295 295 296 296 296 295 296 295 295 294 293 292 292 292 292 291 289 289 289 288 288 288 288 289 289 289 289 289 289 289 288 288 288 288 288 288 287 287 287 287 287
298 297 296 295 296 297 298 298 300 297 292 293 296 297 298 299 298 297 297 296 294 295 298 296 294 294 291 294 292 290 290 290 290 289 289 289 289 290 295 294 293 295 294 295 294 295 295 295 295 295 295 294 294 293 292 292 293 292 291 292 291 290 289 288 289 288 288 288 288 288 288 288 288 288 288 287 287 288 288 287 287 287 287 287 287
299 297 295 295 296 296 298 297 297 291 294 299 298 298 297 295 295 295 296 294 295 294 295 297 294 294 293 294 297 295 295 292 291 291 292 292 292 293 293 293 294 293 293 295 294 295 294 295 294 294 294 294 293 293 292 292 292 290 289 289 289 289 289 289 288 288 287 288 288 288 288 287 288 288 288 288 287 287 287 287 287 287 287 287 287
298 290 288 288 292 296 296 296 296 296 297 297 298 296 292 293 294 295 295 295 292 292 293 295 294 293 293 294 294 295 294 294 292 291 291 291 292 292 295 294 294 293 294 294 294 293 294 293 293 293 294 293 292 293 293 291 292 290 290 289 289 288 289 289 288 288 288 288 288 288 288 288 288 288 288 287 287 287 286 287 287 286 286 286 286
300 296 293 288 293 295 295 294 296 296 293 295 295 297 298 294 294 293 293 293 292 291 293 293 293 293 293 294 293 293 291 290 291 290 290 291 291 293 294 292 291 292 292 292 293 293 293 293 293 293 293 293 293 293 293 291 290 290 290 289 288 288 288 288 288 288 288 288 288 288 288 288 288 288 288 287 287 287 287 287 287 287 287 286 287
299 301 294 292 293 296 296 295 296 295 296 293 294 295 294 293 294 293 293 292 291 292 293 294 293 293 293 291 288 288 291 291 294 293 292 291 291 291 292 292 291 292 292 291 291 292 292 292 291 291 291 291 291 290 292 291 290 289 289 289 289 289 288 288 288 288 288 288 287 287 287 288 288 288 287 287 288 288 287 287 287 287 287 286 286
298 298 297 297 296 296 295 294 296 294 294 295 295 294 293 292 294 293 292 291 291 291 291 292 293 293 291 288 288 288 291 293 293 292 293 294 293 292 291 292 292 292 291 291 292 289 290 291 290 290 290 289 289 290 290 290 289 289 289 289 288 288 288 287 286 286 286 287 287 287 287 287 287 287 287 288 287 287 287 287 286 286 286 286 286
298 297 297 296 296 297 296 297 294 293 292 293 292 291 292 293 294 292 292 291 291 291 291 291 292 293 294 290 289 287 293 293 290 292 292 292 292 291 291 290 291 292 292 292 292 291 290 290 290 290 290 291 291 290 290 290 290 289 289 288 288 288 288 288 288 288 287 287 286 286 286 287 287 287 287 287 287 287 287 287 286 286 286 286 286
297 297 297 296 296 298 295 296 293 293 292 290 290 290 290 292 294 293 292 293 292 290 290 292 291 292 290 291 291 292 293 292 292 292 291 290 290 290 290 289 290 290 290 289 289 290 290 290 290 290 290 291 292 293 291 291 289 289 289 289 288 288 288 287 287 287 286 286 286 286 286 286 286 286 287 287 287 287 286 286 287 286 286 287 287
298 298 296 296 296 298 295 294 293 292 292 292 294 295 292 293 294 293 293 292 291 292 292 290 290 290 290 291 292 292 293 292 290 290 290 290 290 290 290 289 288 288 288 288 287 286 288 288 288 287 288 288 289 290 290 291 292 290 290 289 289 288 287 286 287 287 288 287 287 287 286 286 285 286 286 287 287 286 286 286 286 286 286 286 286
299 298 295 296 295 297 294 294 292 293 293 292 292 294 294 294 294 294 292 291 291 292 290 291 290 290 290 291 292 291 292 292 292 291 290 290 289 289 288 287 287 288 287 287 287 286 286 286 287 286 286 286 288 289 290 291 291 291 290 289 287 286 286 287 287 287 287 287 288 287 287 286 286 287 286 286 287 287 286 286 286 286 286 286 286
298 298 296 296 295 294 295 296 297 294 293 292 292 292 292 293 294 291 290 291 293 291 293 292 291 290 291 292 292 292 293 291 291 291 290 290 289 288 287 287 287 287 287 287 286 287 286 285 286 286 286 286 287 288 289 290 290 290 288 287 285 285 284 285 286 287 287 287 287 288 287 287 287 287 287 287 287 287 287 287 287 286 286 286 286
298 299 298 296 296 295 297 295 293 291 293 292 292 292 291 292 293 293 292 292 293 292 292 293 293 292 291 293 292 292 292 291 290 290 290 289 288 288 287 287 286 286 287 286 286 286 286 286 286 286 286 286 287 288 288 288 288 287 287 285 284 283 283 282 285 287 286 286 287 287 287 286 286 286 286 286 286 287 287 286 286 286 286 286 286
299 297 297 295 295 296 295 294 293 294 293 293 292 292 291 293 292 292 293 293 293 292 293 292 292 292 292 293 293 292 293 291 293 291 290 290 288 287 287 287 287 286 287 287 287 287 286 286 286 287 286 286 288 287 286 286 286 285 284 283 283 282 282 281 282 284 283 286 287 288 287 286 286 287 287 287 286 286 286 286 287 286 286 286 286
297 299 297 295 295 295 295 296 296 294 293 293 293 292 292 292 292 293 293 293 293 293 293 293 292 292 292 292 291 292 293 292 291 291 291 289 289 288 288 287 287 287 287 286 287 287 287 286 286 286 286 286 287 286 285 285 284 283 282 282 281 281 281 281 282 282 283 284 286 287 287 287 287 287 287 287 287 285 286 287 287 286 286 286 286
296 296 296 295 295 295 295 296 295 294 294 293 293 293 292 292 292 292 292 294 295 293 292 293 293 292 293 293 292 293 293 293 294 293 292 290 289 288 287 287 287 287 287 286 287 287 287 286 286 286 287 287 286 285 284 283 283 281 280 280 280 280 280 281 282 282 282 283 285 287 286 286 287 287 287 286 286 286 286 286 286 286 286 286 286
Wind_Speed
7 8 8 7 7 9 13 12 9 8 7 8 7 6 6 6 5 5 5 5 4 4 3 4 3 4 4 3 4 3 3 2 1 3 2 3 2 1 3 2 3 4 3 3 4 4 4 6 7 4 4 4 4 2 2 2 2 2 3 3 2 3 2 3 5 5 2 5 7 7 9 8 7 8 9 7 7 8 7 5 10 8 7 6 7
9 8 8 8 9 8 10 10 10 7 5 8 6 7 7 6 5 5 4 5 5 4 5 3 3 3 4 4 3 4 3 2 2 1 3 3 2 2 2 3 3 5 3 3 3 2 2 2 3 5 5 6 4 4 3 3 3 4 4 3 3 4 3 3 6 4 4 4 6 7 8 8 5 8 9 8 6 6 6 6 7 9 8 7 7
9 8 5 5 9 9 9 10 12 15 10 7 7 7 7 5 5 5 5 5 3 3 4 3 4 3 4 3 4 4 2 2 1 2 3 3 3 3 3 4 3 5 3 3 3 4 2 1 2 3 4 4 6 3 3 3 3 3 5 4 3 4 4 5 6 4 7 4 5 7 6 6 5 8 9 8 8 7 6 8 8 7 8 8 8
9 9 8 8 10 11 11 11 14 14 13 10 9 8 7 7 5 5 4 4 4 3 4 3 3 2 4 4 4 5 2 3 1 2 4 2 3 2 1 2 4 3 3 3 3 5 3 3 2 1 1 4 4 6 3 1 0 1 2 3 4 5 2 8 6 6 4 5 5 7 6 7 4 6 9 8 8 7 5 8 8 8 7 9 9
11 12 9 10 11 11 11 11 12 13 12 10 10 9 8 7 6 6 4 4 4 3 6 2 3 2 3 2 4 3 3 2 1 1 2 1 2 2 1 2 2 3 2 4 5 4 4 3 7 6 6 2 0 6 9 5 3 2 6 5 5 3 3 6 6 6 6 5 5 4 7 5 4 4 9 9 7 7 6 6 9 9 8 8 7
9 10 9 9 10 10 10 9 11 11 11 11 10 8 7 7 5 6 5 4 4 4 3 3 3 2 2 2 5 3 3 2 2 1 3 1 1 2 2 1 1 1 6 2 1 5 3 7 6 2 3 1 1 3 6 11 9 8 8 9 4 3 3 2 5 6 7 5 8 3 6 6 5 4 6 10 9 7 7 7 6 7 7 4 3
4 5 6 10 8 10 8 8 9 9 9 9 9 8 6 6 5 3 5 4 5 4 3 3 1 3 3 2 5 4 3 1 1 2 1 2 1 1 2 3 1 1 4 3 3 2 4 10 6 5 2 1 2 3 3 5 4 5 8 4 2 4 5 2 2 7 6 6 5 4 5 5 6 6 5 7 10 9 8 7 7 7 7 7 4
4 6 8 10 11 9 9 7 8 8 8 10 9 8 7 6 5 3 3 5 4 4 3 4 2 1 3 3 4 8 10 9 8 7 8 5 2 1 3 3 1 4 2 2 5 3 7 7 6 5 2 1 0 2 6 1 2 4 4 1 3 4 4 5 3 4 6 5 5 6 4 6 5 4 5 4 8 8 8 7 7 6 6 5 7
2 7 8 5 6 6 7 7 8 7 7 7 8 8 5 4 3 3 4 4 3 3 3 4 3 2 5 9 10 8 8 7 5 6 6 7 8 1 1 2 2 2 1 2 4 1 7 5 6 5 4 4 4 6 4 5 4 2 2 3 3 3 1 2 2 1 2 3 3 5 4 4 5 6 6 4 5 7 6 6 6 8 7 5 6
6 4 6 5 6 7 6 7 8 9 10 9 7 7 4 1 2 3 5 3 3 4 3 4 2 4 9 10 9 8 6 5 7 8 6 4 5 6 1 1 2 0 4 2 3 1 7 4 4 9 6 4 5 9 10 9 9 6 3 5 5 3 2 1 1 0 1 1 3 3 4 3 4 6 7 6 3 2 3 4 5 5 5 5 5
4 2 5 2 5 8 5 5 8 7 9 9 8 7 4 6 4 4 4 3 4 4 4 6 7 8 10 9 8 7 5 5 10 6 6 9 7 5 6 3 0 2 2 2 3 3 8 5 5 6 5 3 4 6 9 9 9 9 10 8 6 4 4 4 3 1 1 3 2 1 3 4 5 4 5 6 5 3 5 3 4 4 5 5 6
8 8 6 5 5 7 4 5 7 7 9 9 8 8 5 3 4 4 4 5 8 10 10 9 9 8 9 9 9 7 5 9 11 12 10 10 7 5 4 3 2 3 1 1 1 4 6 6 5 4 4 4 3 3 5 7 8 8 8 6 6 5 4 3 2 4 4 4 3 3 4 5 4 5 4 4 5 5 5 4 5 5 4 5 4
9 9 8 9 7 8 8 8 9 10 10 9 7 6 4 3 7 8 8 8 9 9 9 10 9 9 9 10 9 7 5 12 13 13 12 11 11 7 3 6 0 2 0 1 6 5 4 7 5 3 5 8 4 3 3 2 5 6 5 3 1 4 3 2 2 1 0 2 2 4 3 2 3 3 4 3 2 4 4 6 5 4 4 5 5
10 10 11 11 10 9 9 10 10 11 12 12 11 8 5 7 6 7 7 8 9 9 9 10 9 9 9 9 8 7 7 11 13 14 13 13 11 7 4 6 1 2 4 4 4 3 5 5 2 4 4 5 8 7 1 4 2 1 0 0 1 2 3 6 7 3 3 2 2 3 5 2 3 3 4 1 2 4 4 7 5 5 6 8 6
12 11 11 11 11 10 9 10 10 11 11 11 10 8 9 10 10 8 8 8 8 8 8 8 8 9 9 8 8 7 6 12 13 14 13 13 13 6 5 3 5 3 5 4 2 3 2 4 2 8 8 7 6 8 7 2 2 3 3 3 4 4 4 5 4 4 4 4 4 5 5 4 4 4 3 3 3 3 3 3 4 4 4 3 4
13 13 13 12 12 10 10 12 11 11 11 11 11 9 8 9 10 8 8 8 7 8 7 7 8 9 8 8 8 8 7 14 13 14 14 15 13 5 5 1 2 3 4 5 4 4 4 3 6 8 8 7 9 12 10 7 3 2 1 2 2 4 4 7 9 10 6 2 1 1 2 3 4 4 4 4 4 4 6 6 3 3 4 4 6
14 14 13 12 12 11 11 11 11 10 10 10 10 9 8 9 8 7 9 8 8 9 8 8 7 7 7 8 8 6 6 12 14 14 15 16 11 6 5 4 1 1 1 1 2 9 8 7 7 8 7 8 10 14 15 11 4 5 4 4 4 4 3 5 11 6 5 4 3 3 4 4 6 6 6 4 2 2 3 6 6 4 7 7 7
13 13 13 12 11 11 11 11 11 9 10 11 9 8 8 6 6 6 8 8 8 7 6 8 8 7 8 8 6 6 6 10 14 14 15 16 11 7 6 5 2 1 0 1 7 7 11 18 13 9 9 7 11 14 15 11 7 7 7 7 6 6 6 9 7 8 8 7 8 10 9 9 9 9 9 10 9 2 2 7 6 5 7 7 8
13 12 12 11 11 11 11 11 11 10 10 9 8 8 8 8 6 7 8 7 7 4 5 7 7 6 6 7 10 8 5 8 13 14 15 15 13 7 7 7 8 9 8 7 8 7 7 11 16 12 8 8 12 12 13 11 6 6 6 4 5 4 5 8 8 9 9 10 9 7 7 7 6 5 7 11 11 8 5 7 6 7 9 8 7
9 9 10 12 11 11 10 11 11 10 10 9 8 8 7 6 6 6 5 4 4 5 5 6 6 4 4 7 7 7 7 6 10 14 14 16 16 9 8 8 8 8 7 7 4 7 7 7 9 12 12 11 10 11 10 10 7 5 4 4 4 5 6 7 5 5 7 7 8 9 9 6 7 7 6 6 7 6 9 9 8 7 8 7 8
9 8 9 10 11 11 10 10 10 10 8 7 6 6 6 6 6 7 7 6 6 6 6 4 4 3 5 7 7 7 7 6 8 13 14 15 16 11 7 7 5 6 6 6 6 4 6 5 5 8 10 8 7 7 6 5 3 2 1 2 2 3 4 5 7 8 6 6 6 7 7 7 6 6 6 4 4 3 3 5 5 6 7 8 11
8 8 9 9 8 8 9 8 7 6 7 6 6 5 5 4 4 4 5 5 6 5 1 3 4 4 6 7 7 8 8 9 6 10 12 12 13 13 8 6 6 5 5 6 6 5 6 4 4 6 7 7 8 7 4 1 2 2 3 6 7 4 3 4 5 5 5 6 6 6 7 7 7 7 7 6 6 4 4 4 3 3 4 5 7
9 9 8 8 8 7 7 7 6 7 6 5 6 7 5 5 5 5 4 4 5 3 0 2 4 3 4 6 7 7 6 5 8 7 8 10 10 10 9 7 10 6 4 3 4 4 6 5 5 11 10 8 5 4 5 6 5 5 8 7 6 2 3 4 5 5 5 5 5 6 6 6 7 8 8 9 8 5 5 7 7 4 4 3 3
9 10 10 9 8 8 9 8 9 9 9 7 7 6 5 3 3 2 1 0 1 2 2 0 2 2 4 5 7 6 5 5 6 9 7 7 7 6 5 5 4 4 4 3 5 6 6 5 6 11 13 14 13 10 9 5 5 9 9 9 5 4 3 4 5 6 5 4 5 5 5 5 5 6 7 7 7 6 6 4 2 3 4 5 4
7 7 8 9 8 8 7 7 8 8 7 8 8 7 7 6 4 2 1 2 1 2 2 1 2 2 2 3 5 8 6 6 4 5 6 3 3 4 4 5 5 3 5 5 5 5 7 9 10 11 11 12 11 11 9 9 8 4 3 2 2 3 4 5 5 4 3 3 3 4 4 5 6 6 5 5 3 2 1 4 6 6 5 6 6
8 8 8 7 8 7 8 8 9 10 10 8 8 8 8 7 8 9 9 7 5 4 3 1 2 2 2 4 4 5 8 6 5 4 4 3 3 6 6 4 7 5 2 5 8 10 10 10 11 11 10 10 7 6 6 8 12 15 16 11 5 5 5 5 6 4 3 3 4 4 5 6 7 8 9 9 3 2 3 4 4 3 4 5 6
6 6 7 6 7 8 7 6 7 8 8 7 7 7 7 7 7 7 6 6 7 8 7 8 7 6 5 4 4 10 7 7 6 6 7 7 6 7 6 7 6 7 5 8 10 7 9 9 8 12 12 14 13 11 9 9 8 8 6 5 4 5 5 5 4 3 3 4 5 5 5 6 7 7 6 7 9 6 1 2 2 3 3 3 5
4 4 4 3 4 4 5 5 7 6 6 6 6 5 5 5 6 6 5 6 6 6 7 7 8 8 7 8 7 7 7 6 6 7 6 6 5 6 6 6 6 6 5 6 6 7 7 8 9 7 7 6 4 1 1 1 1 3 6 7 7 7 6 3 4 3 1 4 4 4 5 6 7 7 8 8 8 7 3 1 1 2 3 4 3
5 5 3 3 2 2 2 2 4 6 5 5 5 4 3 4 5 5 5 3 3 4 5 6 5 6 7 7 6 6 6 6 4 4 4 4 4 4 5 4 5 5 5 8 7 6 6 6 5 7 6 3 5 6 5 6 5 5 6 6 7 6 6 7 7 7 4 3 4 4 4 5 5 6 6 8 7 6 6 7 1 2 1 3 3
4 3 3 4 4 3 3 3 2 4 5 4 5 5 7 9 8 5 4 4 9 10 9 5 3 3 6 6 5 5 3 2 0 2 3 2 1 3 4 5 5 4 7 9 4 3 3 4 5 6 4 4 5 5 4 4 3 4 3 4 4 4 4 5 6 6 5 1 1 2 4 4 6 4 4 5 7 8 6 4 4 1 3 3 3
4 2 3 3 2 3 2 2 2 1 2 6 4 4 4 7 12 14 11 7 7 9 9 9 9 9 6 4 4 8 7 3 2 2 2 2 3 3 5 6 5 5 5 4 2 3 4 5 5 4 6 6 5 5 5 5 6 5 5 5 6 7 6 6 8 7 6 1 1 1 2 4 3 3 5 6 6 7 6 3 3 2 0 1 3
6 3 2 2 1 2 1 1 2 1 1 3 6 5 3 4 4 8 9 7 6 6 6 6 7 8 8 6 3 2 3 3 4 4 5 5 5 6 7 8 7 7 5 2 2 4 4 2 5 4 4 5 4 6 5 5 5 5 6 6 6 6 6 7 8 9 7 6 5 3 2 3 3 1 2 3 4 6 6 4 3 2 1 2 2
4 4 3 4 2 2 3 2 2 2 3 4 3 3 7 6 4 3 2 2 4 4 4 3 5 5 6 6 6 6 2 3 5 6 6 6 6 6 7 9 5 3 2 1 2 4 3 3 4 4 4 5 5 6 7 7 7 6 6 5 6 6 7 7 7 8 8 6 4 4 4 4 4 3 1 2 3 3 4 3 4 4 3 3 4
3 3 4 4 4 3 2 2 4 4 3 1 1 2 4 3 2 7 5 5 2 2 1 0 1 1 2 4 5 4 2 4 5 6 7 6 4 4 5 5 3 5 2 2 4 3 4 5 5 6 6 7 7 6 5 6 5 6 5 6 7 7 8 8 8 8 6 6 6 6 6 5 4 4 4 2 2 2 3 3 2 2 3 3 4
5 2 3 3 4 3 1 3 3 3 4 6 7 6 3 5 3 4 8 5 5 4 3 1 1 4 2 1 2 3 1 5 6 7 8 8 7 7 6 4 1 2 2 2 3 7 7 7 6 7 7 5 4 4 5 6 6 5 5 5 6 7 7 6 6 7 6 5 5 5 5 5 5 4 4 3 3 3 3 4 3 3 3 3 3
5 3 2 1 4 4 3 3 3 2 3 3 5 5 3 5 3 4 2 2 5 5 5 4 3 6 8 6 7 6 5 5 6 8 9 8 6 7 4 4 5 5 7 7 6 5 5 5 5 4 4 4 4 5 6 5 5 6 6 5 4 4 4 4 5 6 5 5 5 6 5 4 4 4 4 4 4 4 4 4 4 5 4 3 3
3 5 5 5 5 4 5 6 2 4 2 2 2 5 3 2 1 3 2 5 3 3 1 7 4 1 4 4 4 7 8 3 5 6 9 12 12 5 3 6 5 6 5 6 4 3 3 3 4 4 5 5 6 5 5 5 5 5 4 4 4 4 4 4 6 5 6 6 6 6 6 6 6 5 4 4 4 4 5 5 5 5 4 4 5
5 5 5 5 3 5 4 4 5 4 1 0 1 3 4 6 7 5 2 5 2 1 4 2 4 5 4 3 5 4 4 3 0 5 6 6 6 5 5 4 6 5 5 4 5 5 4 4 5 5 5 4 4 4 3 3 2 1 3 3 4 4 7 5 5 5 6 5 6 6 6 6 6 5 5 5 4 4 4 4 4 4 4 4 3
3 4 2 4 3 3 3 1 2 2 3 2 1 1 2 2 4 4 4 3 3 4 5 6 8 5 6 5 6 8 8 5 2 2 5 4 4 4 5 5 4 5 5 5 5 6 5 5 4 5 4 4 4 4 2 1 1 2 2 3 3 3 4 4 4 4 4 5 5 5 5 6 5 5 5 5 6 5 4 3 2 2 3 4 4
1 4 4 4 4 1 2 3 2 1 4 4 3 2 1 2 3 5 6 5 4 4 3 6 5 5 2 3 4 5 5 5 2 4 4 4 4 5 5 4 4 5 4 5 4 4 4 4 4 3 4 3 3 2 2 2 1 2 2 2 3 3 4 3 3 3 4 4 4 4 5 5 5 5 5 5 5 5 5 5 4 5 5 4 4
2 1 3 3 2 2 2 5 1 4 2 5 5 6 5 4 3 4 5 4 4 4 5 5 4 3 2 2 5 3 1 4 4 3 4 4 5 4 4 4 4 4 4 3 2 3 2 3 3 3 3 3 2 3 4 2 2 3 3 3 3 4 3 3 3 3 4 4 4 4 4 4 4 4 5 5 5 5 5 5 5 5 5 5 4
3 4 2 4 3 3 2 4 2 6 6 5 4 4 5 5 4 4 4 4 5 4 2 3 3 2 1 4 7 5 3 3 6 6 6 5 5 5 3 3 3 3 1 1 2 2 2 4 3 2 2 3 3 4 4 4 3 2 2 3 3 3 3 2 2 2 3 3 3 3 4 4 5 4 4 4 4 4 4 4 4 4 4 4 4
2 5 4 2 2 1 1 1 6 7 5 5 5 5 4 3 2 4 4 4 4 5 3 1 4 2 1 2 4 6 2 6 5 5 4 5 5 3 4 2 1 1 2 2 2 3 1 2 1 1 1 0 1 3 4 4 4 3 3 4 4 3 3 2 1 1 1 1 1 2 2 3 3 4 4 4 4 4 4 4 4 4 3 3 3
2 5 5 3 3 1 2 3 6 6 5 4 3 4 3 4 2 2 2 2 0 2 3 4 4 5 4 4 5 4 6 6 5 5 4 4 2 2 2 2 2 2 2 1 2 4 2 2 1 2 1 2 3 4 2 1 3 4 4 3 3 4 4 3 3 3 3 2 2 3 2 2 1 1 2 3 3 3 3 3 4 4 4 3 2
3 2 4 5 2 0 4 7 6 5 4 4 1 1 3 3 1 1 1 1 2 2 3 5 4 5 5 3 5 5 4 5 4 4 2 1 1 1 2 2 2 1 1 1 2 3 4 4 3 3 4 4 4 4 5 2 1 3 5 5 5 4 4 3 3 3 4 4 2 1 1 2 3 3 2 2 2 2 2 3 4 4 4 4 3
2 5 8 6 3 2 6 5 7 7 4 4 3 2 1 1 0 1 1 4 2 2 2 4 3 1 2 2 1 2 2 4 4 3 2 2 2 1 1 2 1 1 1 1 2 2 2 3 3 2 3 3 4 4 5 3 5 6 6 5 4 4 4 4 5 2 2 3 5 5 5 4 2 1 3 3 0 0 0 1 1 3 3 3 3
3 7 6 6 3 3 2 1 1 3 6 5 4 1 2 2 0 3 4 3 1 0 1 3 2 3 2 1 0 0 1 1 3 4 3 3 2 2 1 1 1 1 1 1 1 1 2 2 2 3 3 3 4 4 5 5 6 5 6 4 5 5 5 6 5 6 2 2 2 0 2 3 3 3 3 4 3 1 1 1 1 1 3 3 3
2 1 3 5 4 2 2 2 4 5 7 6 4 4 2 3 2 2 3 3 3 3 2 2 2 3 2 2 1 1 1 1 2 4 4 3 3 2 1 1 1 1 1 1 1 1 2 1 1 2 3 3 4 5 6 6 5 6 4 4 4 5 7 7 5 5 5 5 6 4 0 1 2 2 3 3 3 1 2 4 4 4 4 4 3
1 2 5 6 6 3 2 5 7 5 7 6 6 5 4 3 3 4 4 4 3 3 3 3 4 3 2 0 0 1 0 2 1 3 4 4 3 3 2 1 0 0 1 1 1 1 2 1 0 1 3 4 5 5 5 4 4 4 3 3 5 8 7 8 5 5 7 6 6 5 1 3 2 1 1 4 5 3 3 4 4 4 4 2 3
3 3 3 7 6 3 3 2 2 6 7 8 8 7 6 5 2 2 2 2 3 3 3 3 3 3 3 3 2 1 1 1 2 2 4 4 3 3 2 1 0 1 2 2 1 1 1 0 1 2 3 3 4 4 4 3 3 3 3 4 8 8 8 8 5 6 6 4 5 5 2 2 3 3 4 4 5 3 1 0 1 3 4 2 2
4 4 5 4 3 2 3 2 1 2 5 7 6 6 7 4 5 4 3 2 1 3 4 4 3 3 2 1 1 1 1 1 1 2 3 3 4 3 2 2 2 1 1 1 1 1 1 3 3 3 4 4 3 3 3 3 3 3 4 7 8 9 9 9 6 8 9 7 5 5 3 3 1 1 1 2 4 4 3 4 3 4 4 5 4
Wind_Direction
166 169 161 177 188 171 154 148 149 160 153 152 153 154 141 129 130 131 129 130 145 152 155 144 155 144 154 149 152 177 125 144 207 93 147 110 101 229 157 160 191 144 174 154 161 178 188 153 189 146 148 140 139 190 207 151 168 225 233 224 244 298 204 111 127 138 145 124 137 141 148 157 166 160 155 165 173 196 227 151 149 161 172 177 187
178 167 169 172 184 177 160 149 137 131 147 157 160 140 129 134 141 139 140 131 157 162 142 148 137 156 166 141 175 156 141 143 136 142 169 114 157 200 138 183 233 149 165 158 175 136 129 156 161 162 159 153 142 170 177 177 188 195 224 208 212 237 232 123 146 143 139 134 129 132 148 175 168 166 157 160 177 185 198 152 162 172 180 180 182
179 158 150 197 186 174 162 156 144 150 171 170 152 137 134 141 139 136 129 146 156 158 128 142 140 199 132 172 184 121 147 118 125 223 115 152 159 206 179 209 195 112 146 176 192 150 125 152 139 165 143 168 164 156 172 210 207 203 197 211 228 225 177 126 143 138 144 161 147 141 154 189 179 169 155 160 176 189 186 159 175 187 191 189 187
187 167 177 208 194 177 166 162 157 159 161 157 147 144 143 139 142 139 138 150 150 146 125 148 139 203 140 207 137 105 140 105 182 225 129 165 202 147 235 69 91 133 170 197 201 131 151 113 94 57 217 163 150 138 185 303 345 347 267 233 233 219 159 149 155 139 148 153 173 150 162 184 205 173 150 160 172 190 212 172 184 194 205 198 203
190 180 191 201 189 172 167 164 156 156 150 147 144 146 139 137 142 136 140 158 152 139 120 149 138 197 140 204 114 120 110 153 167 260 121 194 136 161 178 140 165 173 184 73 46 108 114 108 72 50 315 56 169 167 163 186 197 223 244 257 227 176 113 141 132 149 144 161 184 173 157 171 197 204 156 159 174 188 209 207 187 199 199 208 210
197 177 174 204 191 175 163 157 151 149 144 141 140 137 135 138 138 138 160 153 120 105 138 154 154 152 166 213 118 136 135 183 179 218 115 107 230 96 208 132 120 91 62 349 65 65 126 92 93 91 135 141 286 273 167 167 191 201 215 232 179 132 105 136 146 158 150 164 178 170 160 157 195 233 183 163 166 184 198 212 218 206 197 180 100
239 146 185 211 179 192 161 154 144 141 140 131 128 134 141 127 123 143 153 137 126 121 166 125 158 150 185 143 126 163 147 95 38 31 149 151 83 130 28 78 259 84 132 204 116 79 83 102 138 138 84 66 315 314 278 168 204 217 215 229 174 134 148 204 161 162 168 168 177 182 164 182 170 205 236 177 170 176 187 201 220 214 199 154 138
227 161 200 199 181 157 156 156 135 131 131 134 136 136 139 131 142 174 126 125 138 146 154 134 141 177 167 123 83 56 53 46 30 24 10 354 96 94 77 346 358 54 21 14 83 81 103 121 108 98 126 125 79 345 313 348 257 228 230 277 89 150 161 172 196 153 189 163 173 196 181 177 183 182 228 203 178 189 188 183 199 219 221 168 161
79 174 194 188 134 148 132 126 133 115 100 96 91 76 81 109 128 155 122 124 138 122 131 113 166 181 86 64 68 64 56 44 33 12 357 7 357 31 156 157 314 109 57 314 76 53 93 114 123 128 131 135 121 120 95 67 51 13 10 6 76 129 154 178 205 149 185 171 184 181 199 178 183 179 215 249 211 200 198 174 189 201 202 190 176
127 148 165 204 139 116 103 112 111 97 94 89 95 96 58 31 194 138 118 129 142 122 122 132 113 90 83 70 64 60 53 53 18 16 32 343 2 350 1 39 263 89 173 208 107 79 105 104 112 120 124 110 70 65 73 70 69 73 59 36 18 25 11 42 133 254 309 239 225 160 175 211 207 185 200 224 229 203 175 181 195 207 195 205 211
54 77 148 183 130 122 124 115 110 94 94 104 107 93 70 355 291 125 117 110 102 99 82 62 49 55 72 74 63 56 47 22 360 15 22 28 29 4 358 336 27 300 46 332 149 134 119 111 102 119 122 119 92 74 87 84 82 76 74 78 66 49 20 4 335 339 226 244 237 215 214 220 225 211 200 205 213 200 205 187 195 204 198 202 228
56 42 33 61 66 84 77 44 82 105 118 119 113 96 86 217 253 105 107 97 68 66 69 70 69 66 67 65 60 49 43 6 8 16 17 23 35 11 345 320 37 343 82 325 41 115 118 128 140 139 145 144 140 128 90 75 81 75 64 76 84 48 68 87 25 4 14 0 335 270 222 216 224 215 221 202 211 211 209 203 203 202 220 220 219
45 47 38 54 53 71 76 78 74 76 76 77 85 98 124 130 72 65 61 74 81 72 71 72 71 70 68 66 59 43 34 7 8 15 16 15 12 2 355 324 256 252 324 78 45 9 119 138 147 129 103 135 155 155 141 114 67 59 61 11 4 173 165 132 141 191 232 271 288 303 311 316 290 253 223 216 178 206 219 220 214 209 216 229 235
33 48 50 44 46 54 60 65 67 73 77 75 74 79 93 76 64 68 76 74 79 82 75 75 78 75 73 71 60 43 28 3 11 15 15 7 1 356 308 307 333 11 67 40 55 48 44 44 89 124 124 53 19 3 224 146 139 137 169 232 255 289 267 206 211 230 240 230 238 262 283 308 293 306 299 323 185 210 206 217 208 213 218 226 226
26 34 49 48 40 38 46 49 58 64 68 74 68 69 78 78 64 49 60 66 71 77 79 78 77 81 80 75 69 49 27 9 18 18 13 7 352 336 295 344 3 355 41 48 47 36 49 63 55 59 62 50 23 360 4 5 170 186 194 198 214 211 211 227 223 207 200 219 218 234 258 274 274 283 315 351 325 260 209 206 203 205 213 230 252
26 27 38 39 43 33 41 59 55 66 66 70 70 59 52 67 74 67 62 59 62 72 71 73 74 80 80 79 69 49 28 17 18 19 15 6 356 346 325 320 9 22 24 21 5 11 23 30 63 75 64 46 16 13 16 343 347 4 339 294 249 223 213 209 215 212 209 206 239 309 316 358 1 340 352 351 331 346 339 311 265 238 249 255 248
29 24 30 35 39 39 41 54 60 63 69 66 69 63 55 52 61 66 72 59 57 54 58 53 55 70 79 82 80 63 36 17 19 21 18 12 6 354 339 343 311 54 114 129 38 46 29 29 69 78 66 47 11 22 11 12 1 9 345 339 321 322 311 36 40 41 6 334 280 232 228 265 283 289 301 298 280 339 341 323 286 235 230 242 247
32 31 27 23 31 38 41 47 53 53 59 64 62 68 71 62 60 67 78 76 65 55 55 60 56 56 62 67 72 72 51 24 24 24 21 14 5 0 336 333 355 82 46 91 81 70 48 42 45 59 57 41 24 31 18 16 25 14 11 354 346 326 18 12 356 3 341 319 294 288 284 274 267 268 267 270 269 250 226 250 249 260 248 227 234
31 30 28 27 31 35 39 44 47 47 51 49 52 59 56 57 49 61 73 75 78 66 70 73 68 59 64 83 84 74 58 32 28 30 27 21 13 353 359 14 28 10 11 24 72 76 64 54 57 62 65 47 43 39 31 27 36 18 4 347 341 350 33 350 350 344 347 340 332 324 307 296 289 280 273 260 253 243 233 248 260 253 258 254 245
34 34 32 30 30 30 32 38 38 40 46 46 43 46 51 52 50 63 61 73 83 96 94 89 94 103 84 72 80 84 69 39 29 37 35 30 21 22 34 30 19 3 5 355 49 88 70 68 50 50 53 50 49 46 44 41 35 9 0 357 334 341 355 335 325 329 319 308 301 304 293 280 275 275 274 273 260 233 231 236 243 268 293 320 326
33 36 44 42 35 31 31 33 33 33 36 43 38 44 49 53 50 56 60 53 62 75 84 92 100 118 107 92 83 75 77 71 44 40 42 39 35 36 45 34 10 357 352 347 355 55 92 78 86 42 41 38 42 46 63 72 64 359 320 313 317 309 336 312 314 314 296 295 290 291 296 296 287 274 264 259 249 222 211 230 239 224 226 230 255
33 44 47 51 49 42 36 32 37 43 43 38 41 49 49 57 64 60 67 75 71 56 48 130 120 128 123 110 94 87 78 76 63 45 48 49 48 46 47 38 3 345 356 360 3 20 69 57 55 51 41 20 2 360 340 338 264 250 250 243 265 313 316 285 277 278 286 299 299 295 298 301 304 308 304 298 277 282 346 338 294 248 243 212 207
25 34 35 42 47 45 41 37 36 35 37 36 38 36 32 44 38 48 57 83 99 133 284 127 141 132 123 116 110 103 97 91 99 87 63 59 53 55 47 36 360 15 8 355 355 351 54 35 5 351 356 2 2 339 314 299 282 258 271 275 277 300 274 254 251 254 261 266 282 291 295 291 285 282 282 285 280 241 203 226 228 201 154 89 67
26 30 32 19 32 35 36 33 30 28 25 25 27 26 27 41 44 48 62 135 102 96 104 305 95 155 146 131 127 117 106 93 79 90 78 63 63 60 46 18 24 1 336 330 11 19 7 3 344 340 341 338 337 335 321 283 249 266 279 291 324 294 257 265 251 241 243 251 259 271 274 278 283 282 280 275 264 241 240 236 186 104 96 87 72
35 31 28 29 28 32 28 31 30 19 20 23 25 18 16 13 13 354 19 23 42 107 139 131 113 79 86 129 130 126 127 113 105 96 100 98 41 25 12 339 332 14 354 7 4 356 327 317 323 327 323 321 323 328 328 328 331 355 352 4 283 250 247 252 262 263 271 276 280 293 300 300 304 303 331 358 27 11 19 58 56 69 95 89 71
35 33 27 20 22 23 27 28 45 43 40 36 34 21 7 17 27 21 15 12 12 24 15 26 92 82 70 68 80 110 108 89 73 57 39 21 353 357 334 320 311 323 350 302 319 318 321 320 321 320 320 314 320 314 314 302 313 314 311 302 266 268 269 275 284 301 309 322 336 329 324 326 326 333 333 322 307 249 202 132 119 120 113 103 77
41 40 39 23 11 14 25 32 49 46 37 35 32 29 31 39 37 29 26 19 7 7 28 28 26 24 31 33 62 70 66 58 41 32 32 12 7 354 4 353 347 329 359 18 360 347 331 329 309 295 279 277 273 267 268 287 303 300 284 272 270 267 268 285 305 320 329 341 343 346 339 330 319 316 325 329 322 313 307 108 132 161 154 134 110
53 66 58 50 23 12 18 38 76 70 60 50 41 32 32 59 58 40 27 15 12 16 28 32 25 17 18 19 33 65 51 47 30 21 19 17 2 359 356 5 5 1 11 355 339 326 320 310 300 280 275 260 265 276 252 218 290 340 352 7 360 352 332 296 283 291 4 39 20 356 345 340 336 342 335 323 312 311 345 123 146 175 164 128 93
54 37 14 22 12 348 18 24 102 108 91 72 62 52 15 7 73 74 45 18 39 32 43 48 27 9 39 29 23 40 44 35 28 359 22 17 16 355 0 353 348 333 6 358 329 319 321 314 311 319 307 359 35 29 21 14 7 7 4 357 352 339 349 355 346 335 2 28 359 355 332 337 332 331 327 314 322 337 339 330 349 204 147 133 146
83 62 46 17 1 8 22 9 33 104 117 99 91 70 56 46 28 95 109 69 65 63 74 79 36 7 60 58 40 55 43 57 33 355 9 2 320 296 281 289 289 297 309 311 275 294 303 315 313 294 320 12 25 32 14 14 7 8 349 345 336 333 331 336 329 321 320 44 29 19 348 344 323 327 328 324 321 319 323 335 301 272 158 178 166
113 111 72 35 1 306 45 1 29 11 105 131 116 96 79 36 36 40 50 58 65 77 85 87 72 59 67 96 77 94 115 113 42 349 340 333 323 309 302 300 318 319 340 350 340 316 327 313 305 342 9 12 26 19 13 17 13 3 352 349 339 343 335 341 337 320 313 306 109 58 323 302 295 319 335 328 320 319 323 336 345 4 27 103 110
23 27 84 134 289 359 55 36 331 67 169 148 142 145 115 105 67 32 35 41 40 60 85 93 92 87 76 83 113 125 77 41 349 335 331 343 340 336 322 323 332 345 359 85 328 296 271 338 10 6 359 10 3 13 17 13 5 4 358 356 355 1 4 10 355 355 351 7 351 329 292 286 276 315 344 345 341 329 331 333 336 339 349 339 101
29 30 7 359 313 19 8 38 1 13 21 14 35 118 151 158 142 137 82 66 103 118 113 137 143 129 119 99 99 120 166 288 316 317 322 323 327 316 305 295 285 148 103 236 254 282 21 24 358 355 4 8 2 18 13 7 10 13 7 6 1 354 358 2 1 4 350 346 5 6 356 359 342 335 32 67 21 334 338 343 342 12 31 64 45
77 31 2 355 318 92 355 19 9 0 12 6 198 223 94 39 152 147 152 152 183 179 159 223 212 158 94 109 125 140 220 279 292 300 303 304 291 284 268 269 297 169 179 304 301 354 29 5 3 6 19 22 21 19 16 14 15 4 4 10 356 356 360 358 1 354 344 335 350 355 355 344 348 6 354 22 46 8 351 349 359 55 51 65 85
124 120 276 291 321 40 6 60 42 5 356 358 350 354 21 135 258 146 160 180 172 158 146 169 215 240 222 159 203 170 227 273 293 293 304 309 323 326 290 198 248 159 201 229 355 19 5 15 18 20 17 19 15 15 21 12 5 2 9 10 1 7 358 360 350 339 333 338 357 356 345 345 348 352 19 29 24 15 355 6 14 38 70 66 71
341 148 177 254 304 342 39 67 86 61 359 345 339 331 359 341 11 10 27 19 65 124 163 170 161 220 240 210 178 187 196 231 264 292 300 309 329 13 356 20 36 32 33 37 25 360 1 23 20 17 14 8 20 20 25 9 8 12 11 1 10 4 344 355 347 342 332 350 355 348 345 351 357 6 33 40 40 28 27 28 28 16 21 37 53
335 27 34 9 358 351 1 336 72 75 23 317 349 321 309 319 320 294 13 67 59 16 53 131 143 135 267 214 197 214 211 211 269 305 320 313 319 337 29 41 31 33 32 43 22 344 344 20 30 22 22 25 23 27 28 15 20 18 4 4 3 4 347 10 7 357 1 8 5 8 12 11 5 11 42 55 41 43 36 34 34 25 21 26 41
11 34 27 3 3 360 347 0 92 130 191 105 279 296 2 3 347 340 2 101 85 30 330 101 85 93 59 30 9 23 358 282 215 330 304 339 5 33 55 57 44 33 32 31 22 350 3 29 39 28 29 32 22 34 30 27 27 4 358 17 24 17 8 16 10 9 9 13 7 6 9 16 21 31 30 36 44 50 43 38 31 25 13 4 33
110 66 6 313 322 344 336 319 138 220 200 195 250 117 82 348 329 333 357 24 49 35 347 44 58 44 33 9 13 356 354 330 111 77 50 33 30 27 46 41 52 41 23 27 15 6 4 25 25 29 28 36 27 25 4 317 357 55 45 46 48 27 21 28 19 16 17 16 12 10 12 11 16 24 39 44 34 24 22 21 17 14 2 20 40
151 157 186 251 282 259 293 302 229 325 10 12 359 2 57 5 358 4 18 14 11 31 31 66 51 51 16 12 33 10 346 327 51 79 65 43 45 29 33 48 42 43 33 24 8 0 13 25 21 25 22 23 33 349 324 338 12 54 62 67 82 55 38 31 25 22 19 10 12 13 16 13 12 8 23 26 22 21 18 17 20 37 46 45 32
292 288 145 198 285 296 232 255 355 64 48 56 30 19 35 29 10 3 28 8 2 16 23 71 80 57 35 21 18 38 311 310 24 46 69 63 65 52 28 35 42 39 35 19 4 347 13 46 37 26 16 359 339 316 307 311 57 58 36 34 65 90 69 43 29 21 17 24 20 14 9 8 8 18 20 5 13 18 20 13 8 7 18 27 29
343 320 221 204 228 265 338 349 41 80 48 29 33 45 25 5 9 37 29 13 8 10 14 80 91 83 61 41 306 322 347 355 42 25 25 32 57 67 56 48 50 56 43 30 1 329 32 67 69 51 16 342 330 325 331 6 39 73 65 46 60 91 98 94 68 35 32 26 26 17 14 6 3 10 10 11 19 22 10 10 8 9 9 18 18
323 299 292 239 251 266 57 1 67 71 73 58 29 19 11 359 358 11 42 42 17 351 333 309 131 155 66 345 307 313 357 49 53 37 31 29 42 51 56 66 58 44 57 38 339 326 32 83 91 131 165 243 323 344 351 353 6 9 40 56 38 46 79 78 35 18 164 122 60 60 20 9 18 21 22 19 11 4 6 356 347 349 353 359 359
292 284 291 305 298 64 161 95 77 70 68 76 85 52 355 324 336 1 57 93 38 324 312 350 50 45 35 1 350 30 62 47 41 33 40 42 29 27 55 64 36 32 37 43 346 332 354 66 45 354 5 34 352 335 320 338 356 25 11 32 60 51 31 35 38 4 358 35 49 17 34 28 20 33 30 16 12 19 4 12 1 356 350 344 346
251 280 287 290 297 283 80 103 120 116 120 98 82 200 241 266 355 36 15 71 84 303 8 36 33 39 36 19 4 6 81 90 74 63 57 55 39 38 58 53 49 34 12 34 14 354 358 5 33 21 352 359 5 346 326 293 52 62 51 36 26 29 28 31 49 30 355 351 6 47 13 37 31 11 356 348 20 9 23 358 355 356 357 349 349
105 10 306 285 281 252 134 145 138 151 142 112 77 6 21 9 132 226 94 86 55 342 60 70 65 55 52 31 351 349 56 107 113 113 106 86 84 65 52 56 60 44 20 15 43 47 14 2 18 14 353 341 343 326 332 340 57 51 47 43 35 25 11 358 346 10 21 350 356 10 9 3 33 14 308 305 295 35 345 298 338 6 341 329 328
166 179 243 284 305 324 68 69 24 67 98 101 98 85 300 288 223 100 70 57 129 238 121 142 149 147 133 130 174 323 70 97 128 138 122 106 95 73 66 78 87 73 56 44 25 54 66 33 357 351 343 351 338 358 8 13 39 47 52 35 24 3 7 347 336 321 355 356 333 355 323 329 0 21 3 347 352 346 335 338 333 300 322 324 339
244 214 235 281 292 270 259 132 115 127 120 128 145 159 181 240 205 159 150 168 199 154 130 141 120 92 88 77 60 7 2 123 141 135 129 119 106 99 81 65 58 75 121 111 116 85 78 56 357 346 332 353 23 33 28 18 30 32 35 38 23 5 336 337 328 348 358 337 335 301 171 85 45 8 354 359 323 317 38 12 1 356 336 330 348
252 34 12 304 290 298 306 137 166 155 133 147 150 155 171 199 209 171 163 170 151 146 149 131 116 110 98 135 158 110 125 309 353 102 113 110 117 115 108 75 99 257 76 59 100 125 132 122 13 41 15 25 55 51 39 32 25 31 18 29 353 341 342 348 343 341 332 327 329 301 32 55 49 2 348 339 346 27 54 14 1 337 321 335 340
128 124 215 253 268 276 299 325 4 117 148 156 169 162 158 164 179 172 127 147 146 145 135 127 120 129 148 168 169 114 58 342 339 49 99 116 112 111 116 123 73 53 46 19 46 57 32 78 101 82 57 46 72 69 59 47 35 22 13 355 338 347 349 355 351 350 347 325 318 316 39 42 27 39 25 356 338 355 17 5 312 291 293 321 321
167 196 211 236 271 287 270 244 244 241 196 176 155 143 162 161 143 139 165 177 170 145 139 147 144 143 156 121 104 145 109 32 352 23 58 94 115 104 82 50 20 16 115 62 3 28 90 53 38 63 80 54 57 81 82 76 51 38 13 2 3 359 1 1 353 340 337 344 329 334 35 6 291 88 71 357 328 327 326 312 327 341 343 309 304